Reflectivity
34 27 36 34 16 29 35 34 25 19 13 16 6 5 3 -0 -20 -15 -6 -20 -20 -20
29 17 13 9 7 12 11 19 19 3 -1 -12 9 -11 -13 21 -3 -17 -20 -20 -20 -20
13 14 13 12 11 11 11 22 30 22 19 16 -0 29 18 12 27 1 -17 -20 -20 -20
-9 2 9 18 19 17 24 18 16 23 30 34 26 16 -1 -2 -7 -18 -20 -20 -20 -17
-1 -0 8 10 10 9 -19 -20 -7 14 13 7 -19 -20 -20 -20 -20 -20 -20 -20 -18 -16
2 2 16 1 9 -12 -20 -20 -20 -20 -20 -20 -20 -20 -20 -20 -20 -20 -20 -19 -16 -14
-20 -20 -20 -16 -15 -20 -20 -20 -20 -20 -20 -20 -20 -20 -20 -20 -20 -20 -20 -20 -20 -20
-20 -20 -20 -20 -20 -20 -20 -20 -20 -20 -20 -20 -20 -20 -20 -20 -20 -20 -20 -20 -20 -20
-20 -20 -20 -20 -20 -20 -20 -20 -20 -20 -20 -20 -20 -20 -20 -20 -20 -20 -20 -20 -20 -20
-20 -20 -20 -20 -20 -20 -20 -20 -20 -20 -20 -20 -20 -20 -20 -20 -20 -20 -20 -20 -20 -20
-20 -20 -20 -20 -20 -20 -20 -20 -20 -20 -20 -20 -20 -20 -20 -20 -20 -20 -20 -20 -20 -20
-20 -20 -20 -20 -20 -20 -20 -20 -20 -20 -20 -20 -20 -20 -20 -20 -20 -20 -20 -20 -20 -20
-20 -20 -20 -20 -20 -20 -20 -20 -20 -20 -20 -20 -20 -20 -20 -20 -20 -20 -20 -20 -20 4
-20 -20 -20 -20 -20 -20 -20 -20 -20 -20 -20 -20 -20 -20 -20 -20 -20 -13 -15 -20 -15 -20
Wind_Speed
8 7 8 8 5 4 3 5 10 10 8 10 7 8 6 5 4 5 5 6 5 4
10 7 8 9 6 5 6 5 8 8 10 6 7 5 2 2 5 5 5 5 4 3
6 5 8 7 7 7 6 8 9 6 4 3 3 2 5 3 6 5 3 3 4 3
8 9 8 7 6 6 6 6 7 6 4 2 3 5 6 7 6 5 4 3 4 5
9 9 8 8 8 8 8 8 9 9 8 7 6 5 5 5 4 4 4 5 4 5
13 12 10 12 11 11 11 11 10 9 7 6 5 4 2 1 3 4 4 4 6 8
13 13 12 12 12 11 10 10 9 8 7 6 5 4 2 1 4 5 6 7 8 8
12 12 12 12 11 10 9 8 8 7 6 5 4 3 3 3 5 7 8 7 8 8
11 11 10 10 9 9 8 8 7 6 5 4 3 6 6 7 8 8 9 9 10 11
10 10 9 8 8 8 7 6 6 6 6 6 6 9 9 9 8 7 8 9 10 10
8 8 7 6 6 6 5 6 6 6 6 6 4 8 8 10 10 8 11 11 11 12
6 6 5 6 6 6 5 5 6 6 6 6 6 7 10 12 10 11 12 11 12 11
5 4 4 4 4 3 3 4 4 6 6 6 8 8 11 12 9 11 9 11 11 13
5 5 3 2 4 4 5 5 5 6 6 7 8 9 12 12 9 8 9 8 7 8
Wind_Direction
151 159 150 173 175 175 159 192 163 176 199 238 245 227 224 233 223 204 220 230 225 213
139 156 126 155 161 157 161 148 156 177 206 208 181 145 73 283 242 217 201 201 198 206
127 120 112 115 126 138 139 145 137 121 116 169 134 118 145 175 223 192 168 179 182 195
74 68 61 74 82 93 101 106 120 127 132 161 153 180 164 190 181 177 167 181 206 215
91 86 81 76 84 92 100 119 134 145 148 143 156 164 166 168 180 184 199 203 225 244
84 84 86 91 90 92 94 99 102 109 113 116 114 112 110 177 208 227 241 231 243 254
84 85 82 83 82 84 84 88 89 88 83 77 74 65 54 282 257 249 253 267 266 272
89 89 88 86 85 84 83 84 81 85 81 73 69 40 338 279 281 278 279 270 269 266
96 93 89 88 87 87 84 76 73 65 54 37 30 16 356 328 305 293 294 295 295 294
94 86 81 79 75 70 63 54 45 38 25 5 0 5 347 336 308 309 297 296 293 290
82 79 72 69 69 61 46 30 21 10 358 346 4 359 347 338 309 304 292 293 293 291
69 68 59 52 44 30 8 3 354 348 336 332 325 4 340 326 309 299 296 297 294 291
68 82 78 63 47 24 345 340 331 334 338 344 317 318 318 318 300 291 299 308 303 291
84 75 63 58 26 350 343 332 333 325 317 308 308 307 315 310 303 300 293 294 294 292